[[{"header":{"parameterUnit":"m.s-1","parameterCategory":1,"la1":30.2991,"la2":30.254,"lo1":-89.0895,"lo2":-89.0444,"dy":0.0017,"dx":0.0017,"nx":28,"ny":28,"refTime":"2025-12-30T09:00:00:Z","depth":0,"parameterNumber":2,"parameterNumberName":"U-component_of_WINDS"},"data":[0,0,0,0,0,0,0,0,0,0,0,0,0,0,0,0,0,0,0,0,0,0,0,0,0,0,0,0,0,0,0,0,0,0,0,0,0,0,0,0,0,0,0,0,0,0,0,0,0,0,0,0,0,0,0,0,0,0,2.2421,2.2421,0,2.2418,2.2418,2.2418,2.2381,2.238,2.2379,2.2378,2.2374,2.2375,2.2376,0,0,0,0,0,0,0,0,0,0,0,0,0,2.2398,2.2398,2.2421,2.2421,2.2421,2.2418,2.2418,2.2418,2.2381,2.238,2.2379,2.2378,2.2374,2.2375,2.2376,0,0,0,0,0,0,0,0,0,0,0,0,0,2.2402,2.2399,2.2421,2.2403,2.2401,2.2418,2.2418,2.2418,2.2381,2.238,2.2379,2.2377,2.2374,2.2375,2.2376,2.241,0,0,2.2379,2.238,0,0,0,0,0,0,0,0,2.2402,2.2403,2.2405,2.2404,2.2402,2.2398,2.2408,2.2415,2.2382,2.2389,2.2378,2.2377,2.2383,2.2383,2.2386,2.241,2.241,2.2379,2.238,2.238,2.2381,0,0,0,0,0,0,0,2.2402,2.2403,2.242,2.2406,2.2404,2.2395,2.2394,2.2409,2.2394,2.2388,2.2385,2.2386,2.2382,2.2385,2.2385,2.2409,2.2379,2.238,2.2381,2.2381,2.2463,2.2465,0,0,0,0,0,0,2.2404,2.2403,2.242,2.242,2.2399,2.2396,2.2395,2.2401,2.2393,2.2391,2.2387,2.2384,2.2384,2.2384,2.2385,2.2426,2.238,2.2381,2.2382,2.2462,2.2463,2.2465,0,0,0,0,0,0,2.2404,2.2406,2.242,2.2411,2.2412,2.2398,2.2405,2.2402,2.2404,2.2392,2.239,2.2392,2.2383,2.2384,2.2404,2.2425,2.2382,2.2383,2.246,2.2462,2.2464,2.2507,0,0,0,0,0,0,2.2403,2.2406,2.2419,2.2411,2.2413,2.2439,2.2406,2.2403,2.2406,2.2403,2.2397,2.2395,2.2382,2.2403,2.2406,2.2426,2.2384,2.2458,2.2461,2.2464,2.2503,2.251,2.2516,0,0,0,0,0,2.2403,2.243,2.2419,2.2422,2.2428,2.2441,2.2441,2.2426,2.2408,2.2421,2.2414,2.2395,2.2423,2.2405,2.2408,2.2429,2.2457,2.246,2.2463,2.25,2.2509,2.2516,0,0,0,0,0,0,2.2439,2.2429,2.2417,2.2443,2.2443,2.2434,2.245,2.2435,2.244,2.2436,2.2417,2.2416,2.244,2.2436,2.2418,2.2462,2.2436,2.244,2.2464,2.2471,2.2478,2.2478,2.2385,0,0,0,0,0,2.2451,2.2462,2.2452,2.2476,2.2477,2.2464,2.2468,2.2457,2.2456,2.2456,2.245,2.245,2.2459,2.2465,2.2472,2.2503,2.2502,2.2519,2.2525,2.253,2.2534,2.2551,2.2559,2.2476,2.2476,2.2476,0,0,2.2474,2.2469,2.2477,2.2483,2.2482,2.2494,2.2464,2.2477,2.2487,2.2458,2.2477,2.2473,2.2472,2.2499,2.251,2.2497,2.2556,2.2534,2.2539,2.2539,2.2555,2.2563,2.257,2.2479,2.2478,2.2478,0,0,2.2522,2.252,2.254,2.254,2.2539,2.253,2.2535,2.2529,2.2526,2.2545,2.2524,2.2535,2.2551,2.2551,2.2553,2.2605,2.2588,2.2608,2.264,2.2657,2.2664,2.2669,2.2689,2.2696,2.2611,2.2612,2.2612,0,2.2551,2.2568,2.2552,2.2568,2.2572,2.2547,2.2568,2.2569,2.257,2.2573,2.2559,2.2579,2.2576,2.2603,2.2616,2.2618,2.2624,2.2608,2.2664,2.267,2.2675,2.2693,2.27,2.2614,2.2614,2.2613,2.2613,0,2.2604,2.2617,2.2634,2.2637,2.2642,2.266,2.2648,2.2655,2.2644,2.2637,2.2658,2.2655,2.2662,2.2667,2.2656,2.2693,2.2685,2.2668,2.2641,2.2685,2.2702,2.2709,2.2618,2.2617,2.2616,2.2615,0,0,2.2674,2.2669,2.2676,2.2677,2.2675,2.2685,2.2703,2.2711,2.2718,2.272,2.2735,2.275,2.2735,2.2737,2.2726,2.2741,2.2783,2.2722,2.2721,2.2734,2.2825,2.2839,2.2847,2.2772,2.2773,2.2774,2.2826,0,2.2721,2.2751,2.2738,2.277,2.2782,2.276,2.2776,2.2777,2.2772,2.2782,2.2776,2.2787,2.2765,2.2767,2.2781,2.2775,2.2801,2.2771,2.2786,2.2787,2.2787,2.2855,2.2869,2.2917,2.2832,2.2833,2.2834,0,2.278,2.2786,2.2819,2.2817,2.2821,2.2836,2.2842,2.2852,2.2853,2.2848,2.2853,2.2838,2.2856,2.2831,2.2856,2.2836,2.2841,2.284,2.2841,2.2842,2.2813,2.2858,2.2932,2.294,2.2844,2.2843,2.2842,0,2.2829,2.2845,2.2867,2.2869,2.2866,2.2877,2.2877,2.2877,2.2883,2.2889,2.2892,2.29,2.2905,2.2912,2.29,2.2882,2.2928,2.29,2.2924,2.2925,2.2935,2.2934,2.3011,2.2938,2.2938,2.2938,2.2938,0,2.2883,2.2904,2.2889,2.2903,2.2927,2.2912,2.2936,2.2933,2.2934,2.2947,2.2928,2.2941,2.2925,2.2937,2.2928,2.2951,2.2953,2.295,2.2947,2.2952,2.2952,2.2955,2.2951,2.294,2.2939,2.2939,2.2939,0,2.294,2.2931,2.2954,2.2951,2.2951,2.2968,2.2965,2.2978,2.2972,2.299,2.2993,2.2984,2.2997,2.2986,2.2998,2.2993,2.3023,2.3016,2.3023,2.3021,2.3046,2.3044,2.3127,2.3138,2.3058,2.3059,2.306,0,2.2976,2.2992,2.299,2.2998,2.2999,2.3012,2.3018,2.3005,2.3012,2.3016,2.3029,2.3041,2.3049,2.3071,2.3065,2.3075,2.3068,2.3097,2.3069,2.3074,2.3069,2.3068,2.307,2.3102,2.3103,2.3104,2.3104,0,2.3039,2.3034,2.3044,2.3053,2.3062,2.3068,2.3073,2.308,2.3067,2.3077,2.309,2.3097,2.311,2.3122,2.3131,2.313,2.3116,2.3113,2.3119,2.3124,2.3128,2.3127,2.3039,2.3111,2.311,2.311,2.311,2.3109,2.3087,2.3101,2.3103,2.3115,2.3118,2.3123,2.3136,2.3132,2.3143,2.3153,2.3145,2.3161,2.3164,2.3173,2.3175,2.3188,2.3176,2.3185,2.3187,2.319,2.3194,2.3126,2.319,2.3189,2.3189,2.3189,2.3189,0,2.315,2.3151,2.3162,2.317,2.318,2.3166,2.3172,2.3181,2.3196,2.3199,2.3209,2.3225,2.3237,2.3233,2.3244,2.3255,2.3249,2.3259,2.3258,2.3258,2.3203,2.3197,2.3264,2.3264,2.3264,2.3264,2.3264,2.3264,2.3184,2.3208,2.3203,2.3228,2.3229,2.3245,2.3249,2.3255,2.3258,2.3277,2.3287,2.3285,2.3286,2.3297,2.3308,2.3306,2.3312,2.3324,2.332,2.3269,2.3262,2.3255,2.3249,2.3325,2.3325,2.3374,2.3374,2.3375]},{"header":{"parameterUnit":"m.s-1","parameterCategory":1,"la1":30.2991,"la2":30.254,"lo1":-89.0895,"lo2":-89.0444,"dy":0.0017,"dx":0.0017,"nx":28,"ny":28,"refTime":"2025-12-30T09:00:00:Z","depth":0,"parameterNumber":3,"parameterNumberName":"V-component_of_WINDS"},"data":[0,0,0,0,0,0,0,0,0,0,0,0,0,0,0,0,0,0,0,0,0,0,0,0,0,0,0,0,0,0,0,0,0,0,0,0,0,0,0,0,0,0,0,0,0,0,0,0,0,0,0,0,0,0,0,0,0,0,-5.7882,-5.7883,0,-5.8005,-5.8006,-5.8008,-5.8,-5.7998,-5.7996,-5.7995,-5.8116,-5.8121,-5.8126,0,0,0,0,0,0,0,0,0,0,0,0,0,-5.7637,-5.7642,-5.7882,-5.7883,-5.7885,-5.8005,-5.8006,-5.8008,-5.8,-5.7998,-5.7996,-5.7994,-5.8115,-5.812,-5.8126,0,0,0,0,0,0,0,0,0,0,0,0,0,-5.775,-5.7643,-5.7881,-5.7896,-5.7898,-5.8004,-5.8006,-5.8008,-5.8001,-5.7998,-5.7995,-5.7993,-5.8113,-5.812,-5.8127,-5.8226,0,0,-5.8149,-5.8153,0,0,0,0,0,0,0,0,-5.7744,-5.7759,-5.7892,-5.7895,-5.7898,-5.7984,-5.7965,-5.8081,-5.8001,-5.7962,-5.7995,-5.7992,-5.8074,-5.8085,-5.8113,-5.8231,-5.8237,-5.815,-5.8155,-5.8158,-5.816,0,0,0,0,0,0,0,-5.7736,-5.7754,-5.793,-5.7894,-5.7897,-5.7895,-5.7908,-5.7987,-5.8031,-5.7965,-5.7965,-5.798,-5.8075,-5.8106,-5.8116,-5.8238,-5.815,-5.8156,-5.8161,-5.8164,-5.8445,-5.8448,0,0,0,0,0,0,-5.7725,-5.7747,-5.7926,-5.7934,-5.7813,-5.7901,-5.7916,-5.7959,-5.803,-5.8039,-5.7982,-5.7979,-5.8095,-5.8108,-5.812,-5.8242,-5.8158,-5.8165,-5.8169,-5.8442,-5.8446,-5.8449,0,0,0,0,0,0,-5.772,-5.7742,-5.7921,-5.7841,-5.7863,-5.7908,-5.7957,-5.7963,-5.7994,-5.8043,-5.8051,-5.8006,-5.8093,-5.811,-5.82,-5.8246,-5.8168,-5.8175,-5.8439,-5.8444,-5.8448,-5.8485,0,0,0,0,0,0,-5.7713,-5.774,-5.7778,-5.7842,-5.7868,-5.8,-5.796,-5.7967,-5.8007,-5.8005,-5.8067,-5.8075,-5.8093,-5.819,-5.8208,-5.8255,-5.818,-5.8435,-5.8441,-5.8446,-5.848,-5.849,-5.8499,0,0,0,0,0,-5.7705,-5.7782,-5.778,-5.7802,-5.7917,-5.8003,-5.8018,-5.8037,-5.8011,-5.805,-5.8082,-5.8073,-5.8238,-5.8199,-5.8219,-5.8269,-5.8432,-5.8439,-5.8446,-5.8475,-5.8488,-5.8499,0,0,0,0,0,0,-5.7721,-5.7791,-5.7789,-5.789,-5.7941,-5.8001,-5.8051,-5.805,-5.8108,-5.8103,-5.8124,-5.8138,-5.8229,-5.8258,-5.8213,-5.8369,-5.8332,-5.8343,-5.8347,-5.8359,-5.8369,-5.836,-5.8186,0,0,0,0,0,-5.7736,-5.7802,-5.7859,-5.7942,-5.7968,-5.8005,-5.8043,-5.8054,-5.8107,-5.8128,-5.8166,-5.8217,-5.828,-5.8321,-5.8382,-5.8484,-5.8498,-5.8528,-5.8538,-5.8546,-5.8555,-5.8613,-5.8627,-5.8472,-5.8472,-5.8472,0,0,-5.7768,-5.7815,-5.7854,-5.7946,-5.7987,-5.8054,-5.8023,-5.8094,-5.8143,-5.8138,-5.8227,-5.8257,-5.8315,-5.8412,-5.8456,-5.8439,-5.8601,-5.8555,-5.856,-5.8566,-5.8621,-5.8636,-5.8649,-5.8477,-5.8476,-5.8475,0,0,-5.7861,-5.7903,-5.7978,-5.802,-5.8083,-5.8108,-5.8126,-5.8188,-5.8208,-5.8298,-5.8296,-5.8354,-5.8462,-5.8504,-5.854,-5.8651,-5.8646,-5.867,-5.872,-5.8776,-5.8788,-5.8799,-5.884,-5.8854,-5.868,-5.868,-5.868,0,-5.7893,-5.7994,-5.8016,-5.8089,-5.8129,-5.813,-5.8206,-5.8246,-5.8324,-5.8352,-5.8332,-5.847,-5.8508,-5.8616,-5.8643,-5.8672,-5.8693,-5.8663,-5.8785,-5.8796,-5.8807,-5.8846,-5.8861,-5.8682,-5.8682,-5.8682,-5.8681,0,-5.803,-5.8101,-5.8153,-5.8232,-5.8279,-5.8353,-5.8385,-5.843,-5.8437,-5.8464,-5.8556,-5.8603,-5.8674,-5.87,-5.8707,-5.881,-5.8797,-5.8781,-5.8743,-5.8824,-5.8861,-5.8876,-5.8686,-5.8685,-5.8684,-5.8684,0,0,-5.8135,-5.8227,-5.8246,-5.8283,-5.8354,-5.8408,-5.8482,-5.8554,-5.8592,-5.8646,-5.8709,-5.8802,-5.8788,-5.8829,-5.8841,-5.8889,-5.8976,-5.8867,-5.8869,-5.8886,-5.9093,-5.9105,-5.9121,-5.8973,-5.8976,-5.8979,-5.9088,0,-5.8236,-5.8369,-5.8392,-5.8508,-5.8573,-5.8576,-5.8641,-5.8691,-5.8718,-5.8777,-5.8807,-5.8873,-5.8849,-5.8874,-5.8923,-5.8955,-5.9018,-5.8948,-5.9031,-5.9034,-5.9017,-5.9141,-5.9153,-5.9254,-5.9102,-5.9105,-5.9107,0,-5.837,-5.8432,-5.8555,-5.8619,-5.8647,-5.8705,-5.8773,-5.883,-5.8887,-5.8903,-5.895,-5.8957,-5.9033,-5.8993,-5.9099,-5.9051,-5.9087,-5.9108,-5.9113,-5.9121,-5.9075,-5.9153,-5.9287,-5.9302,-5.9129,-5.9128,-5.9126,0,-5.8435,-5.8548,-5.8637,-5.8668,-5.8745,-5.8786,-5.8819,-5.8874,-5.8916,-5.8975,-5.9003,-5.907,-5.9107,-5.9158,-5.9183,-5.9151,-5.9288,-5.9249,-5.9303,-5.9303,-5.9331,-5.9329,-5.9473,-5.9354,-5.9354,-5.9353,-5.9353,0,-5.8545,-5.8621,-5.8668,-5.8722,-5.8807,-5.8833,-5.8916,-5.8948,-5.8997,-5.9058,-5.9064,-5.912,-5.9149,-5.921,-5.923,-5.9315,-5.9331,-5.9347,-5.9351,-5.9346,-5.9345,-5.937,-5.9364,-5.9358,-5.9357,-5.9356,-5.9355,0,-5.8632,-5.8667,-5.8764,-5.8829,-5.8848,-5.8907,-5.8963,-5.9016,-5.9044,-5.9121,-5.914,-5.9184,-5.9256,-5.9286,-5.9374,-5.9387,-5.9485,-5.9484,-5.9467,-5.9468,-5.9521,-5.9516,-5.9686,-5.971,-5.9575,-5.9576,-5.9577,0,-5.87,-5.8758,-5.8831,-5.8873,-5.8909,-5.8976,-5.902,-5.9048,-5.9093,-5.9164,-5.9209,-5.9281,-5.9341,-5.9456,-5.9495,-5.9562,-5.9563,-5.9618,-5.9573,-5.9567,-5.9565,-5.9561,-5.9567,-5.9626,-5.9628,-5.9629,-5.963,0,-5.8817,-5.8832,-5.8896,-5.8967,-5.902,-5.9077,-5.9132,-5.9166,-5.9202,-5.9253,-5.9328,-5.9374,-5.9466,-5.9538,-5.9608,-5.9641,-5.9642,-5.9644,-5.966,-5.9656,-5.9644,-5.9652,-5.949,-5.9639,-5.9638,-5.9638,-5.9637,-5.9637,-5.8897,-5.895,-5.901,-5.9082,-5.9127,-5.9179,-5.9233,-5.9269,-5.9333,-5.941,-5.9422,-5.9503,-5.956,-5.9655,-5.9691,-5.9754,-5.974,-5.9763,-5.9769,-5.9774,-5.9778,-5.9634,-5.9767,-5.9766,-5.9766,-5.9766,-5.9766,0,-5.9015,-5.9054,-5.912,-5.9199,-5.9256,-5.9253,-5.9315,-5.9362,-5.9433,-5.9487,-5.9547,-5.9634,-5.9704,-5.975,-5.9821,-5.9863,-5.9865,-5.988,-5.9878,-5.9885,-5.9786,-5.9766,-5.9878,-5.9878,-5.9878,-5.9878,-5.9878,-5.9878,-5.9083,-5.9173,-5.9195,-5.9308,-5.9347,-5.9427,-5.9463,-5.9511,-5.9554,-5.9652,-5.9712,-5.9742,-5.9792,-5.9868,-5.9932,-5.9944,-5.997,-5.9987,-5.9997,-5.9904,-5.9892,-5.9881,-5.9862,-5.9992,-5.9992,-6.0091,-6.0092,-6.0093]}]]